,,Stat6,,Stat2,,Stat8,,Stat9,,Stat10,,Wind1,,Wind1,
time,status,PA1M_AVG,status,PR1M_SUM,status,RH1M_AVG,status,SR1M_AVG,status,TA1M_AVG,status,W1dAve1m,status,W1sAve1m,
2005-02-08, 00:00:00,VALID,920.466,VALID,0,VALID,90.6273,VALID,0,VALID,20.361,VALID,127,VALID,1.7138,
2005-02-08, 00:01:00,VALID,920.482,VALID,0,VALID,90.4874,VALID,0.0169808,VALID,20.3933,VALID,141,VALID,1.4535,
2005-02-08, 00:02:00,VALID,920.487,VALID,0,VALID,90.242,VALID,0.0509425,VALID,20.4321,VALID,135,VALID,1.6541,
2005-02-08, 00:03:00,VALID,920.492,VALID,0,VALID,90.1199,VALID,0,VALID,20.4845,VALID,136,VALID,1.35278,
2005-02-08, 00:04:00,VALID,920.494,VALID,0,VALID,89.9737,VALID,0.0169808,VALID,20.5166,VALID,133,VALID,1.85063,
2005-02-08, 00:05:00,VALID,920.483,VALID,0,VALID,89.7422,VALID,0,VALID,20.5419,VALID,135,VALID,1.93445,
2005-02-08, 00:06:00,VALID,920.462,VALID,0,VALID,89.6036,VALID,0.0169808,VALID,20.6035,VALID,134,VALID,1.36174,
2005-02-08, 00:07:00,VALID,920.478,VALID,0,VALID,89.6341,VALID,0,VALID,20.6229,VALID,119,VALID,0.973958,
2005-02-08, 00:08:00,VALID,920.494,VALID,0,VALID,89.6672,VALID,-0.0169808,VALID,20.607,VALID,130,VALID,1.88194,
2005-02-08, 00:09:00,VALID,920.503,VALID,0,VALID,89.6608,VALID,0.0169808,VALID,20.5901,VALID,132,VALID,1.55895,
2005-02-08, 00:10:00,VALID,920.504,VALID,0,VALID,89.6189,VALID,0.0169808,VALID,20.6003,VALID,135,VALID,1.55729,
2005-02-08, 00:11:00,VALID,920.514,VALID,0,VALID,89.4854,VALID,0,VALID,20.6261,VALID,138,VALID,1.68142,
2005-02-08, 00:12:00,VALID,920.521,VALID,0,VALID,89.3239,VALID,0,VALID,20.6547,VALID,131,VALID,1.58866,
2005-02-08, 00:13:00,VALID,920.536,VALID,0,VALID,89.2768,VALID,0.0169808,VALID,20.6942,VALID,127,VALID,1.44705,
2005-02-08, 00:14:00,VALID,920.524,VALID,0,VALID,89.2781,VALID,0,VALID,20.6975,VALID,112,VALID,1.46057,
2005-02-08, 00:15:00,VALID,920.541,VALID,0,VALID,89.4269,VALID,0,VALID,20.6972,VALID,120,VALID,1.31417,
2005-02-08, 00:16:00,VALID,920.54,VALID,0,VALID,89.4841,VALID,0,VALID,20.6746,VALID,120,VALID,1.28214,
2005-02-08, 00:17:00,VALID,920.526,VALID,0,VALID,89.5222,VALID,0,VALID,20.6845,VALID,124,VALID,1.24409,
2005-02-08, 00:18:00,VALID,920.507,VALID,0,VALID,89.6329,VALID,0.0169808,VALID,20.6646,VALID,120,VALID,1.26842,
2005-02-08, 00:19:00,VALID,920.483,VALID,0,VALID,89.7168,VALID,0,VALID,20.6619,VALID,126,VALID,1.35918,
2005-02-08, 00:20:00,VALID,920.458,VALID,0,VALID,89.5413,VALID,0.0169808,VALID,20.6716,VALID,124,VALID,1.53664,
2005-02-08, 00:21:00,VALID,920.437,VALID,0,VALID,89.3633,VALID,0,VALID,20.6972,VALID,117,VALID,1.29211,
2005-02-08, 00:22:00,VALID,920.449,VALID,0,VALID,89.3289,VALID,0,VALID,20.7166,VALID,79,VALID,1.13034,
2005-02-08, 00:23:00,VALID,920.444,VALID,0,VALID,89.3442,VALID,0.0169808,VALID,20.7031,VALID,104,VALID,1.44931,
2005-02-08, 00:24:00,VALID,920.46,VALID,0,VALID,89.4434,VALID,0,VALID,20.6937,VALID,113,VALID,1.24981,
2005-02-08, 00:25:00,VALID,920.466,VALID,0,VALID,89.5693,VALID,0,VALID,20.6778,VALID,102,VALID,1.4375,
2005-02-08, 00:26:00,VALID,920.478,VALID,0,VALID,89.76,VALID,0.0169808,VALID,20.6485,VALID,89,VALID,1.13281,
2005-02-08, 00:27:00,VALID,920.489,VALID,0,VALID,90.0271,VALID,0.0169808,VALID,20.6159,VALID,88,VALID,1.22285,
2005-02-08, 00:28:00,VALID,920.479,VALID,0,VALID,90.2331,VALID,0,VALID,20.5777,VALID,93,VALID,1.32732,
2005-02-08, 00:29:00,VALID,920.477,VALID,0,VALID,90.2865,VALID,0.0169808,VALID,20.5384,VALID,99,VALID,1.49787,
2005-02-08, 00:30:00,VALID,920.464,VALID,0,VALID,90.3539,VALID,0,VALID,20.519,VALID,105,VALID,1.55705,
2005-02-08, 00:31:00,VALID,920.426,VALID,0,VALID,90.4213,VALID,0,VALID,20.5134,VALID,106,VALID,1.50639,
2005-02-08, 00:32:00,VALID,920.399,VALID,0,VALID,90.4035,VALID,0.0169808,VALID,20.4867,VALID,107,VALID,1.51781,
2005-02-08, 00:33:00,VALID,920.397,VALID,0,VALID,90.2216,VALID,0.0339617,VALID,20.5064,VALID,107,VALID,1.39248,
2005-02-08, 00:34:00,VALID,920.393,VALID,0,VALID,90.1161,VALID,0.0169808,VALID,20.5292,VALID,120,VALID,1.35252,
2005-02-08, 00:35:00,VALID,920.39,VALID,0,VALID,90.0932,VALID,0.0169808,VALID,20.5618,VALID,104,VALID,1.17455,
2005-02-08, 00:36:00,VALID,920.375,VALID,0,VALID,90.158,VALID,0.0169808,VALID,20.5511,VALID,118,VALID,1.02764,
2005-02-08, 00:37:00,VALID,920.361,VALID,0,VALID,90.3208,VALID,0,VALID,20.5384,VALID,121,VALID,1.33967,
2005-02-08, 00:38:00,VALID,920.328,VALID,0,VALID,90.3297,VALID,0,VALID,20.5287,VALID,143,VALID,1.70222,
2005-02-08, 00:39:00,VALID,920.326,VALID,0,VALID,90.2242,VALID,0.0339617,VALID,20.5586,VALID,110,VALID,1.32383,
2005-02-08, 00:40:00,VALID,920.333,VALID,0,VALID,90.2331,VALID,0,VALID,20.5263,VALID,84,VALID,0.845567,
2005-02-08, 00:41:00,VALID,920.327,VALID,0,VALID,90.4874,VALID,0,VALID,20.4773,VALID,100,VALID,1.06729,
2005-02-08, 00:42:00,VALID,920.3,VALID,0,VALID,90.6336,VALID,0,VALID,20.4383,VALID,98,VALID,1.39008,
2005-02-08, 00:43:00,VALID,920.284,VALID,0,VALID,90.6832,VALID,0,VALID,20.4356,VALID,87,VALID,1.25614,
2005-02-08, 00:44:00,VALID,920.258,VALID,0,VALID,90.7468,VALID,0,VALID,20.3995,VALID,111,VALID,1.4392,
2005-02-08, 00:45:00,VALID,920.222,VALID,0,VALID,90.5993,VALID,0,VALID,20.4033,VALID,126,VALID,1.56745,
2005-02-08, 00:46:00,VALID,920.195,VALID,0,VALID,90.1618,VALID,0.0169808,VALID,20.4383,VALID,123,VALID,2.08213,
2005-02-08, 00:47:00,VALID,920.186,VALID,0,VALID,89.2755,VALID,0.0169808,VALID,20.5836,VALID,105,VALID,2.24316,
2005-02-08, 00:48:00,VALID,920.175,VALID,0,VALID,88.8356,VALID,0.0169808,VALID,20.6969,VALID,90,VALID,1.41654,
2005-02-08, 00:49:00,VALID,920.163,VALID,0,VALID,88.95,VALID,0,VALID,20.7069,VALID,108,VALID,1.55759,
2005-02-08, 00:50:00,VALID,920.135,VALID,0,VALID,89.1357,VALID,0,VALID,20.6751,VALID,117,VALID,1.78507,
2005-02-08, 00:51:00,VALID,920.083,VALID,0,VALID,89.3073,VALID,-0.101885,VALID,20.6533,VALID,110,VALID,1.19199,
2005-02-08, 00:52:00,VALID,920.064,VALID,0,VALID,89.5362,VALID,-0.0849042,VALID,20.6215,VALID,108,VALID,1.19766,
2005-02-08, 00:53:00,VALID,920.053,VALID,0,VALID,89.8122,VALID,-0.101885,VALID,20.5634,VALID,111,VALID,1.4913,
2005-02-08, 00:54:00,VALID,920.041,VALID,0,VALID,89.9342,VALID,-0.101885,VALID,20.534,VALID,115,VALID,1.48147,
2005-02-08, 00:55:00,VALID,920.023,VALID,0,VALID,89.9024,VALID,-0.101885,VALID,20.5308,VALID,111,VALID,1.57347,
2005-02-08, 00:56:00,VALID,920.021,VALID,0,VALID,89.8872,VALID,-0.101885,VALID,20.5243,VALID,114,VALID,1.34411,
2005-02-08, 00:57:00,VALID,919.993,VALID,0,VALID,89.933,VALID,-0.0849042,VALID,20.5179,VALID,108,VALID,1.23121,
2005-02-08, 00:58:00,VALID,919.981,VALID,0,VALID,90.008,VALID,-0.0679233,VALID,20.5106,VALID,111,VALID,1.33903,
2005-02-08, 00:59:00,VALID,919.976,VALID,0,VALID,90.1097,VALID,-0.0679233,VALID,20.4851,VALID,113,VALID,1.30877,
2005-02-08, 01:00:00,VALID,919.966,VALID,0,VALID,90.3322,VALID,-0.0509425,VALID,20.4463,VALID,98,VALID,1.5467,
2005-02-08, 01:01:00,VALID,919.94,VALID,0,VALID,90.6781,VALID,-0.0849042,VALID,20.3844,VALID,105,VALID,1.53411,
2005-02-08, 01:02:00,VALID,919.919,VALID,0,VALID,90.846,VALID,-0.101885,VALID,20.3529,VALID,114,VALID,1.33221,
2005-02-08, 01:03:00,VALID,919.898,VALID,0,VALID,91.01,VALID,-0.0849042,VALID,20.3141,VALID,110,VALID,1.04408,
2005-02-08, 01:04:00,VALID,919.888,VALID,0,VALID,91.1753,VALID,-0.0679233,VALID,20.2686,VALID,126,VALID,0.954799,
2005-02-08, 01:05:00,VALID,919.855,VALID,0,VALID,91.3114,VALID,-0.0849042,VALID,20.2562,VALID,138,VALID,1.01639,
2005-02-08, 01:06:00,VALID,919.86,VALID,0,VALID,91.23,VALID,-0.0169808,VALID,20.2721,VALID,122,VALID,1.33479,
2005-02-08, 01:07:00,VALID,919.852,VALID,0,VALID,91.1372,VALID,-0.0339617,VALID,20.2913,VALID,137,VALID,1.69717,
2005-02-08, 01:08:00,VALID,919.845,VALID,0,VALID,90.7379,VALID,-0.0509425,VALID,20.3491,VALID,144,VALID,1.77858,
2005-02-08, 01:09:00,VALID,919.825,VALID,0,VALID,90.4441,VALID,-0.0339617,VALID,20.4135,VALID,145,VALID,1.36772,
2005-02-08, 01:10:00,VALID,919.813,VALID,0,VALID,90.2839,VALID,0,VALID,20.4587,VALID,145,VALID,1.29707,
2005-02-08, 01:11:00,VALID,919.792,VALID,0,VALID,90.1262,VALID,0,VALID,20.4719,VALID,143,VALID,1.31179,
2005-02-08, 01:12:00,VALID,919.79,VALID,0,VALID,90.0614,VALID,-0.0679233,VALID,20.4915,VALID,134,VALID,1.28635,
2005-02-08, 01:13:00,VALID,919.791,VALID,0,VALID,89.9889,VALID,-0.0339617,VALID,20.5174,VALID,135,VALID,1.14881,
2005-02-08, 01:14:00,VALID,919.766,VALID,0,VALID,89.9317,VALID,-0.0679233,VALID,20.527,VALID,134,VALID,1.4033,
2005-02-08, 01:15:00,VALID,919.761,VALID,0,VALID,89.6125,VALID,-0.0509425,VALID,20.5502,VALID,118,VALID,1.47238,
2005-02-08, 01:16:00,VALID,919.756,VALID,0,VALID,89.5515,VALID,-0.0509425,VALID,20.5661,VALID,126,VALID,1.24428,
2005-02-08, 01:17:00,VALID,919.734,VALID,0,VALID,89.3976,VALID,-0.0339617,VALID,20.569,VALID,136,VALID,1.66667,
2005-02-08, 01:18:00,VALID,919.71,VALID,0,VALID,89.287,VALID,-0.0339617,VALID,20.5981,VALID,137,VALID,1.78143,
2005-02-08, 01:19:00,VALID,919.703,VALID,0,VALID,89.1636,VALID,0,VALID,20.6428,VALID,122,VALID,1.47954,
2005-02-08, 01:20:00,VALID,919.68,VALID,0,VALID,88.9487,VALID,0,VALID,20.656,VALID,126,VALID,1.73597,
2005-02-08, 01:21:00,VALID,919.666,VALID,0,VALID,88.9475,VALID,-0.0679233,VALID,20.6654,VALID,113,VALID,1.39989,
2005-02-08, 01:22:00,VALID,919.663,VALID,0,VALID,88.7936,VALID,-0.0169808,VALID,20.6665,VALID,123,VALID,1.58913,
2005-02-08, 01:23:00,VALID,919.625,VALID,0,VALID,88.6652,VALID,-0.0339617,VALID,20.6729,VALID,126,VALID,1.21075,
2005-02-08, 01:24:00,VALID,919.59,VALID,0,VALID,88.2735,VALID,-0.0849042,VALID,20.712,VALID,140,VALID,1.75986,
2005-02-08, 01:25:00,VALID,919.595,VALID,0,VALID,88.0205,VALID,0,VALID,20.7696,VALID,120,VALID,1.6676,
2005-02-08, 01:26:00,VALID,919.605,VALID,0,VALID,87.9505,VALID,0,VALID,20.7989,VALID,125,VALID,1.57849,
2005-02-08, 01:27:00,VALID,919.617,VALID,0,VALID,87.8691,VALID,-0.0509425,VALID,20.7979,VALID,119,VALID,1.84189,
2005-02-08, 01:28:00,VALID,919.607,VALID,0,VALID,87.6848,VALID,-0.0679233,VALID,20.8374,VALID,121,VALID,2.02634,
2005-02-08, 01:29:00,VALID,919.587,VALID,0,VALID,87.4991,VALID,-0.0509425,VALID,20.8859,VALID,112,VALID,1.71005,
2005-02-08, 01:30:00,VALID,919.565,VALID,0,VALID,87.4775,VALID,0,VALID,20.8921,VALID,110,VALID,1.65144,
2005-02-08, 01:31:00,VALID,919.543,VALID,0,VALID,87.5843,VALID,-0.0339617,VALID,20.8923,VALID,101,VALID,1.88317,
2005-02-08, 01:32:00,VALID,919.538,VALID,0,VALID,87.7,VALID,-0.0509425,VALID,20.8366,VALID,108,VALID,2.16559,
2005-02-08, 01:33:00,VALID,919.525,VALID,0,VALID,87.7572,VALID,0,VALID,20.8339,VALID,113,VALID,1.99386,
2005-02-08, 01:34:00,VALID,919.51,VALID,0,VALID,87.4902,VALID,0,VALID,20.8536,VALID,95,VALID,2.76816,
2005-02-08, 01:35:00,VALID,919.496,VALID,0,VALID,87.2944,VALID,-0.0679233,VALID,20.9144,VALID,119,VALID,1.74306,
2005-02-08, 01:36:00,VALID,919.463,VALID,0,VALID,87.0375,VALID,-0.0339617,VALID,20.9249,VALID,128,VALID,2.78145,
2005-02-08, 01:37:00,VALID,919.481,VALID,0,VALID,87.1291,VALID,-0.0339617,VALID,20.9532,VALID,122,VALID,1.88427,
2005-02-08, 01:38:00,VALID,919.474,VALID,0,VALID,87.447,VALID,-0.0339617,VALID,20.9311,VALID,118,VALID,1.36137,
2005-02-08, 01:39:00,VALID,919.473,VALID,0,VALID,87.8437,VALID,-0.0339617,VALID,20.8657,VALID,117,VALID,1.23475,
2005-02-08, 01:40:00,VALID,919.477,VALID,0,VALID,88.182,VALID,-0.0509425,VALID,20.7949,VALID,115,VALID,1.47805,
2005-02-08, 01:41:00,VALID,919.466,VALID,0,VALID,88.491,VALID,-0.0679233,VALID,20.7402,VALID,122,VALID,1.41964,
2005-02-08, 01:42:00,VALID,919.444,VALID,0,VALID,88.7605,VALID,-0.0509425,VALID,20.6851,VALID,106,VALID,1.05905,
2005-02-08, 01:43:00,VALID,919.404,VALID,0,VALID,89.0543,VALID,-0.0679233,VALID,20.6366,VALID,107,VALID,1.1965,
2005-02-08, 01:44:00,VALID,919.362,VALID,0,VALID,88.8953,VALID,-0.0339617,VALID,20.5847,VALID,146,VALID,2.03018,
2005-02-08, 01:45:00,VALID,919.349,VALID,0,VALID,88.8788,VALID,-0.0169808,VALID,20.6237,VALID,90,VALID,1.17483,
2005-02-08, 01:46:00,VALID,919.342,VALID,0,VALID,89.1128,VALID,-0.0169808,VALID,20.6105,VALID,118,VALID,1.35004,
2005-02-08, 01:47:00,VALID,919.346,VALID,0,VALID,89.4523,VALID,-0.0339617,VALID,20.5422,VALID,136,VALID,1.29155,
2005-02-08, 01:48:00,VALID,919.338,VALID,0,VALID,89.5502,VALID,-0.0169808,VALID,20.5072,VALID,127,VALID,1.29345,
2005-02-08, 01:49:00,VALID,919.337,VALID,0,VALID,89.3353,VALID,-0.0169808,VALID,20.5002,VALID,134,VALID,1.65625,
2005-02-08, 01:50:00,VALID,919.335,VALID,0,VALID,89.1064,VALID,-0.0169808,VALID,20.5464,VALID,118,VALID,1.72326,
2005-02-08, 01:51:00,VALID,919.322,VALID,0,VALID,88.8712,VALID,-0.0339617,VALID,20.6043,VALID,133,VALID,1.07146,
2005-02-08, 01:52:00,VALID,919.312,VALID,0,VALID,88.9106,VALID,-0.0169808,VALID,20.6331,VALID,128,VALID,1.49538,
2005-02-08, 01:53:00,VALID,919.316,VALID,0,VALID,88.9907,VALID,-0.0509425,VALID,20.6396,VALID,132,VALID,1.13148,
2005-02-08, 01:54:00,VALID,919.295,VALID,0,VALID,89.1675,VALID,-0.0679233,VALID,20.6339,VALID,135,VALID,1.40495,
2005-02-08, 01:55:00,VALID,919.276,VALID,0,VALID,89.2196,VALID,-0.0509425,VALID,20.6274,VALID,130,VALID,1.38077,
2005-02-08, 01:56:00,VALID,919.285,VALID,0,VALID,89.2959,VALID,0,VALID,20.6269,VALID,108,VALID,1.34681,
2005-02-08, 01:57:00,VALID,919.279,VALID,0,VALID,89.1649,VALID,-0.0169808,VALID,20.6498,VALID,120,VALID,1.74818,
2005-02-08, 01:58:00,VALID,919.258,VALID,0,VALID,89.1166,VALID,-0.0339617,VALID,20.6786,VALID,103,VALID,1.02834,
2005-02-08, 01:59:00,VALID,919.231,VALID,0,VALID,89.1649,VALID,-0.0509425,VALID,20.6756,VALID,91,VALID,1.07552,
2005-02-08, 02:00:00,VALID,919.225,VALID,0,VALID,89.0441,VALID,-0.0339617,VALID,20.6913,VALID,75,VALID,1.05632,
2005-02-08, 02:01:00,VALID,919.241,VALID,0,VALID,89.0352,VALID,-0.0169808,VALID,20.7047,VALID,93,VALID,1.04563,
2005-02-08, 02:02:00,VALID,919.249,VALID,0,VALID,89.0886,VALID,0,VALID,20.698,VALID,97,VALID,1.31577,
2005-02-08, 02:03:00,VALID,919.256,VALID,0,VALID,88.8419,VALID,-0.0339617,VALID,20.7365,VALID,102,VALID,1.79088,
2005-02-08, 02:04:00,VALID,919.237,VALID,0,VALID,88.6156,VALID,-0.0509425,VALID,20.7981,VALID,91,VALID,1.43694,
2005-02-08, 02:05:00,VALID,919.208,VALID,0,VALID,88.5736,VALID,-0.0169808,VALID,20.8337,VALID,66,VALID,1.58212,
2005-02-08, 02:06:00,VALID,919.191,VALID,0,VALID,88.641,VALID,-0.0849042,VALID,20.8565,VALID,51,VALID,1.64043,
2005-02-08, 02:07:00,VALID,919.182,VALID,0,VALID,88.683,VALID,-0.0849042,VALID,20.8633,VALID,78,VALID,1.24734,
2005-02-08, 02:08:00,VALID,919.169,VALID,0,VALID,88.6474,VALID,-0.101885,VALID,20.8633,VALID,96,VALID,1.34702,
2005-02-08, 02:09:00,VALID,919.143,VALID,0,VALID,88.5571,VALID,-0.0679233,VALID,20.8759,VALID,70,VALID,1.11682,
2005-02-08, 02:10:00,VALID,919.146,VALID,0,VALID,88.5876,VALID,-0.101885,VALID,20.8923,VALID,79,VALID,1.17424,
2005-02-08, 02:11:00,VALID,919.122,VALID,0,VALID,88.5698,VALID,-0.0849042,VALID,20.8859,VALID,91,VALID,1.21215,
2005-02-08, 02:12:00,VALID,919.118,VALID,0,VALID,88.6105,VALID,-0.0849042,VALID,20.8923,VALID,97,VALID,1.26262,
2005-02-08, 02:13:00,VALID,919.12,VALID,0,VALID,88.8203,VALID,-0.0679233,VALID,20.8598,VALID,125,VALID,1.32584,
2005-02-08, 02:14:00,VALID,919.112,VALID,0,VALID,89.0098,VALID,-0.101885,VALID,20.8213,VALID,131,VALID,1.76023,
2005-02-08, 02:15:00,VALID,919.121,VALID,0,VALID,89.1471,VALID,-0.101885,VALID,20.7725,VALID,121,VALID,1.50293,
2005-02-08, 02:16:00,VALID,919.111,VALID,0,VALID,89.1725,VALID,-0.101885,VALID,20.7728,VALID,116,VALID,1.45845,
2005-02-08, 02:17:00,VALID,919.116,VALID,0,VALID,89.1547,VALID,-0.0849042,VALID,20.7758,VALID,108,VALID,1.68623,
2005-02-08, 02:18:00,VALID,919.114,VALID,0,VALID,89.226,VALID,-0.101885,VALID,20.7922,VALID,102,VALID,1.05115,
2005-02-08, 02:19:00,VALID,919.112,VALID,0,VALID,89.2946,VALID,-0.101885,VALID,20.7828,VALID,114,VALID,1.25295,
2005-02-08, 02:20:00,VALID,919.104,VALID,0,VALID,89.3048,VALID,-0.101885,VALID,20.7763,VALID,132,VALID,1.18936,
2005-02-08, 02:21:00,VALID,919.079,VALID,0,VALID,89.2196,VALID,-0.0849042,VALID,20.7892,VALID,137,VALID,1.52859,
2005-02-08, 02:22:00,VALID,919.072,VALID,0,VALID,89.0975,VALID,-0.101885,VALID,20.7949,VALID,124,VALID,1.76616,
2005-02-08, 02:23:00,VALID,919.087,VALID,0,VALID,88.9831,VALID,-0.101885,VALID,20.8304,VALID,135,VALID,1.65891,
2005-02-08, 02:24:00,VALID,919.08,VALID,0,VALID,88.9843,VALID,-0.101885,VALID,20.8434,VALID,128,VALID,1.67132,
2005-02-08, 02:25:00,VALID,919.097,VALID,0,VALID,88.9055,VALID,-0.101885,VALID,20.8496,VALID,113,VALID,1.22275,
2005-02-08, 02:26:00,VALID,919.093,VALID,0,VALID,88.8419,VALID,-0.101885,VALID,20.8762,VALID,136,VALID,1.27623,
2005-02-08, 02:27:00,VALID,919.093,VALID,0,VALID,88.5329,VALID,-0.0849042,VALID,20.905,VALID,140,VALID,2.11755,
2005-02-08, 02:28:00,VALID,919.104,VALID,0,VALID,88.3091,VALID,-0.0849042,VALID,20.9731,VALID,136,VALID,1.92656,
2005-02-08, 02:29:00,VALID,919.13,VALID,0,VALID,88.0332,VALID,-0.0849042,VALID,21.0183,VALID,114,VALID,1.59115,
2005-02-08, 02:30:00,VALID,919.137,VALID,0,VALID,87.9582,VALID,-0.101885,VALID,21.0431,VALID,140,VALID,1.07871,
2005-02-08, 02:31:00,VALID,919.127,VALID,0,VALID,87.8869,VALID,-0.0849042,VALID,21.0668,VALID,131,VALID,1.74873,
2005-02-08, 02:32:00,VALID,919.124,VALID,0,VALID,87.8107,VALID,-0.0679233,VALID,21.063,VALID,137,VALID,1.76979,
2005-02-08, 02:33:00,VALID,919.109,VALID,0,VALID,87.8908,VALID,-0.101885,VALID,21.0692,VALID,133,VALID,1.54464,
2005-02-08, 02:34:00,VALID,919.09,VALID,0,VALID,87.8717,VALID,-0.0679233,VALID,21.0633,VALID,146,VALID,2.24181,
2005-02-08, 02:35:00,VALID,919.087,VALID,0,VALID,88.084,VALID,-0.0679233,VALID,21.0528,VALID,117,VALID,2.10338,
2005-02-08, 02:36:00,VALID,919.091,VALID,0,VALID,88.332,VALID,0.0169808,VALID,21.0332,VALID,127,VALID,1.54316,
2005-02-08, 02:37:00,VALID,919.075,VALID,0,VALID,88.51,VALID,0.0169808,VALID,20.9802,VALID,111,VALID,1.43332,
2005-02-08, 02:38:00,VALID,919.047,VALID,0,VALID,88.2773,VALID,0,VALID,20.9769,VALID,80,VALID,1.88635,
2005-02-08, 02:39:00,VALID,919.037,VALID,0,VALID,88.271,VALID,0,VALID,21.0063,VALID,106,VALID,1.66727,
2005-02-08, 02:40:00,VALID,919.022,VALID,0,VALID,88.3727,VALID,0,VALID,21.0232,VALID,117,VALID,1.80541,
2005-02-08, 02:41:00,VALID,919.007,VALID,0,VALID,88.2455,VALID,0.0169808,VALID,21.0001,VALID,99,VALID,2.28757,
2005-02-08, 02:42:00,VALID,918.972,VALID,0,VALID,88.2328,VALID,0.0509425,VALID,20.996,VALID,120,VALID,1.46637,
2005-02-08, 02:43:00,VALID,918.944,VALID,0,VALID,88.3473,VALID,0,VALID,20.9931,VALID,127,VALID,0.986607,
2005-02-08, 02:44:00,VALID,918.941,VALID,0,VALID,88.4948,VALID,0.0339617,VALID,20.9769,VALID,127,VALID,1.4593,
2005-02-08, 02:45:00,VALID,918.924,VALID,0,VALID,88.5609,VALID,0.0169808,VALID,20.9479,VALID,128,VALID,1.7484,
2005-02-08, 02:46:00,VALID,918.911,VALID,0,VALID,88.594,VALID,0.0169808,VALID,20.9511,VALID,142,VALID,1.72389,
2005-02-08, 02:47:00,VALID,918.909,VALID,0,VALID,88.8648,VALID,0.0169808,VALID,20.9355,VALID,126,VALID,1.4748,
2005-02-08, 02:48:00,VALID,918.889,VALID,0,VALID,89.0149,VALID,0.0679233,VALID,20.8905,VALID,129,VALID,2.02689,
2005-02-08, 02:49:00,VALID,918.878,VALID,0,VALID,89.1191,VALID,0.0169808,VALID,20.8738,VALID,115,VALID,1.32589,
2005-02-08, 02:50:00,VALID,918.85,VALID,0,VALID,89.3404,VALID,0.0339617,VALID,20.848,VALID,133,VALID,1.57267,
2005-02-08, 02:51:00,VALID,918.828,VALID,0,VALID,89.4358,VALID,0.0169808,VALID,20.813,VALID,130,VALID,1.7044,
2005-02-08, 02:52:00,VALID,918.794,VALID,0,VALID,89.4612,VALID,0.0169808,VALID,20.7963,VALID,123,VALID,1.51963,
2005-02-08, 02:53:00,VALID,918.792,VALID,0,VALID,89.5553,VALID,0.0169808,VALID,20.7866,VALID,102,VALID,1.62612,
2005-02-08, 02:54:00,VALID,918.8,VALID,0,VALID,89.6062,VALID,0,VALID,20.7605,VALID,127,VALID,1.60156,
2005-02-08, 02:55:00,VALID,918.794,VALID,0,VALID,89.7003,VALID,0.0339617,VALID,20.7548,VALID,132,VALID,1.14517,
2005-02-08, 02:56:00,VALID,918.791,VALID,0,VALID,89.8681,VALID,0,VALID,20.7352,VALID,140,VALID,1.67057,
2005-02-08, 02:57:00,VALID,918.801,VALID,0,VALID,89.8783,VALID,0,VALID,20.7158,VALID,118,VALID,1.05398,
2005-02-08, 02:58:00,VALID,918.805,VALID,0,VALID,89.9686,VALID,0,VALID,20.7061,VALID,137,VALID,1.45655,
2005-02-08, 02:59:00,VALID,918.779,VALID,0,VALID,90.0576,VALID,0,VALID,20.6932,VALID,124,VALID,1.2745,
2005-02-08, 03:00:00,VALID,918.759,VALID,0,VALID,90.1555,VALID,0.0169808,VALID,20.68,VALID,131,VALID,1.38263,
2005-02-08, 03:01:00,VALID,918.721,VALID,0,VALID,90.1631,VALID,0.0339617,VALID,20.6736,VALID,126,VALID,1.72972,
2005-02-08, 03:02:00,VALID,918.711,VALID,0,VALID,89.952,VALID,0.0169808,VALID,20.6736,VALID,128,VALID,1.88993,
2005-02-08, 03:03:00,VALID,918.669,VALID,0,VALID,89.6786,VALID,0,VALID,20.7123,VALID,127,VALID,1.45004,
2005-02-08, 03:04:00,VALID,918.648,VALID,0,VALID,89.5693,VALID,0.0169808,VALID,20.7454,VALID,102,VALID,1.03926,
2005-02-08, 03:05:00,VALID,918.629,VALID,0,VALID,89.5171,VALID,0.0169808,VALID,20.7449,VALID,115,VALID,0.949389,
2005-02-08, 03:06:00,VALID,918.612,VALID,0,VALID,89.4625,VALID,-0.0849042,VALID,20.7464,VALID,113,VALID,1.23637,
2005-02-08, 03:07:00,VALID,918.597,VALID,0,VALID,89.1954,VALID,-0.0339617,VALID,20.7561,VALID,121,VALID,1.90661,
2005-02-08, 03:08:00,VALID,918.581,VALID,0,VALID,88.9182,VALID,-0.0849042,VALID,20.8011,VALID,130,VALID,1.17541,
2005-02-08, 03:09:00,VALID,918.571,VALID,0,VALID,88.9335,VALID,-0.0679233,VALID,20.8339,VALID,102,VALID,0.987153,
2005-02-08, 03:10:00,VALID,918.574,VALID,0,VALID,88.9856,VALID,-0.0509425,VALID,20.8242,VALID,92,VALID,1.16053,
2005-02-08, 03:11:00,VALID,918.59,VALID,0,VALID,89.1306,VALID,-0.0339617,VALID,20.7946,VALID,103,VALID,1.40195,
2005-02-08, 03:12:00,VALID,918.577,VALID,0,VALID,89.3328,VALID,-0.0509425,VALID,20.7489,VALID,112,VALID,1.1168,
2005-02-08, 03:13:00,VALID,918.562,VALID,0,VALID,89.3976,VALID,-0.0849042,VALID,20.744,VALID,123,VALID,1.21897,
2005-02-08, 03:14:00,VALID,918.553,VALID,0,VALID,89.3353,VALID,-0.0509425,VALID,20.7532,VALID,129,VALID,1.76926,
2005-02-08, 03:15:00,VALID,918.555,VALID,0,VALID,89.2387,VALID,-0.0849042,VALID,20.7591,VALID,113,VALID,1.13104,
2005-02-08, 03:16:00,VALID,918.559,VALID,0,VALID,89.2005,VALID,-0.0509425,VALID,20.772,VALID,129,VALID,1.26217,
2005-02-08, 03:17:00,VALID,918.544,VALID,0,VALID,89.1319,VALID,-0.0339617,VALID,20.7685,VALID,132,VALID,1.13953,
2005-02-08, 03:18:00,VALID,918.561,VALID,0,VALID,89.184,VALID,-0.0169808,VALID,20.7847,VALID,143,VALID,1.42667,
2005-02-08, 03:19:00,VALID,918.569,VALID,0,VALID,89.3379,VALID,-0.0169808,VALID,20.7747,VALID,134,VALID,1.21857,
2005-02-08, 03:20:00,VALID,918.571,VALID,0,VALID,89.5337,VALID,-0.0339617,VALID,20.7623,VALID,127,VALID,1.22057,
2005-02-08, 03:21:00,VALID,918.56,VALID,0,VALID,89.6418,VALID,-0.0509425,VALID,20.7298,VALID,136,VALID,1.39044,
2005-02-08, 03:22:00,VALID,918.549,VALID,0,VALID,89.7549,VALID,-0.0679233,VALID,20.7206,VALID,120,VALID,1.26923,
2005-02-08, 03:23:00,VALID,918.545,VALID,0,VALID,89.2959,VALID,-0.0339617,VALID,20.7007,VALID,139,VALID,2.14653,
2005-02-08, 03:24:00,VALID,918.535,VALID,0,VALID,89.1128,VALID,-0.0509425,VALID,20.7588,VALID,107,VALID,1.27958,
2005-02-08, 03:25:00,VALID,918.531,VALID,0,VALID,89.1153,VALID,-0.0509425,VALID,20.7817,VALID,123,VALID,1.54464,
2005-02-08, 03:26:00,VALID,918.524,VALID,0,VALID,89.142,VALID,-0.0509425,VALID,20.778,VALID,129,VALID,1.60342,
2005-02-08, 03:27:00,VALID,918.514,VALID,0,VALID,89.1649,VALID,-0.0509425,VALID,20.7981,VALID,116,VALID,1.57067,
2005-02-08, 03:28:00,VALID,918.492,VALID,0,VALID,88.8317,VALID,-0.0849042,VALID,20.814,VALID,121,VALID,1.35901,
2005-02-08, 03:29:00,VALID,918.483,VALID,0,VALID,88.8521,VALID,-0.101885,VALID,20.8269,VALID,109,VALID,1.67656,
2005-02-08, 03:30:00,VALID,918.451,VALID,0,VALID,88.3765,VALID,-0.0509425,VALID,20.8436,VALID,120,VALID,2.20113,
2005-02-08, 03:31:00,VALID,918.432,VALID,0,VALID,88.2761,VALID,-0.0509425,VALID,20.8851,VALID,105,VALID,1.47098,
2005-02-08, 03:32:00,VALID,918.409,VALID,0,VALID,87.9302,VALID,-0.0339617,VALID,20.9241,VALID,116,VALID,1.66406,
2005-02-08, 03:33:00,VALID,918.389,VALID,0,VALID,88.0586,VALID,-0.0169808,VALID,20.9435,VALID,109,VALID,1.52108,